CAPE
39 23 57 53 136 274 638 845 884 837 726 701 374 570 774 122 11 0 0 0 295 317 637 977 1394 1723 1977 2184 2274 2295 2458 2309 2196 2226 2304 2162 1978 1785 1319 1501 1783 1590 1340
0 70 237 307 423 683 784 860 876 1054 742 723 249 76 154 246 3 0 0 0 44 290 320 730 1181 1442 1796 2120 2397 2453 2201 1873 1909 1990 2153 2158 1983 1798 1236 1264 1688 1574 1177
537 576 573 595 741 964 1064 1175 937 759 634 339 196 140 34 17 0 0 0 0 0 15 338 790 917 1074 1237 1744 2478 2462 2042 1910 1853 1826 2017 2161 1998 1756 843 1171 1605 1268 940
851 733 667 719 964 1169 1570 1470 1119 642 268 288 353 367 19 0 0 0 4 2 14 108 222 526 938 1049 1400 1623 2235 1824 2045 1972 1689 1440 1350 2078 1938 1738 716 1058 1368 1106 774
889 953 941 687 902 1374 1659 1726 1328 538 390 316 387 378 255 311 302 246 490 366 400 578 781 945 1246 1513 1788 1859 1654 2024 1661 1585 1425 1179 1047 1652 1749 1680 688 913 1134 1030 727
1143 1334 778 424 1106 1366 1627 1559 1122 776 594 565 509 436 379 265 272 394 497 632 738 841 884 1297 1569 1658 2031 2012 1394 1571 1528 1378 1217 883 907 967 1582 1569 827 661 973 901 872
1207 591 22 596 1070 1218 1363 1453 1471 1045 749 453 661 361 297 299 365 402 436 464 512 477 427 886 1162 755 1052 1166 1095 971 994 1062 1618 945 826 907 1186 1422 1076 358 943 863 775
1042 919 547 691 793 1007 1172 1275 1187 992 642 616 1021 289 383 284 314 325 399 386 298 249 262 247 168 137 51 0 0 117 514 1105 1274 1394 822 871 879 1191 1165 535 506 956 708
986 910 659 583 598 790 1014 1072 1140 1093 601 429 437 804 627 408 283 169 183 175 242 265 235 174 143 75 17 0 0 174 610 488 635 1174 1402 718 944 739 1015 1020 296 503 821
763 953 816 693 729 688 1017 1036 1022 1017 899 532 342 226 203 209 363 376 215 98 85 109 102 68 38 44 5 0 0 0 128 540 703 919 1221 1341 686 746 676 1077 841 238 264
689 832 859 810 752 650 822 949 843 887 661 524 385 228 63 12 6 25 35 1 1 3 31 61 87 67 3 2 60 278 558 628 778 986 1002 1154 953 726 275 755 1158 865 294
585 756 764 804 782 622 783 740 735 816 734 777 382 254 153 107 116 0 3 49 59 65 106 134 117 67 119 196 414 605 754 846 952 946 631 636 590 485 221 59 755 1399 1230
366 445 643 560 647 619 652 783 697 622 680 629 524 209 66 112 29 0 6 67 153 85 154 230 166 459 587 630 805 843 873 945 897 459 324 437 276 195 161 18 34 488 1227
166 227 332 526 551 596 651 659 642 671 497 652 523 560 148 47 37 50 97 90 116 25 0 192 148 328 607 1026 1161 1011 1037 959 957 801 473 135 129 153 153 128 0 2 120
98 95 134 330 472 476 668 589 600 607 567 479 409 511 545 137 46 139 272 56 225 29 43 147 336 479 289 661 891 1105 1026 675 764 734 668 671 683 324 160 288 318 121 0
15 93 85 290 368 444 561 558 650 671 556 463 520 570 615 462 345 331 342 321 91 212 134 148 463 468 436 648 677 802 721 448 702 654 534 289 303 355 350 242 183 233 174
0 5 16 76 221 230 412 540 648 618 495 416 490 486 343 361 474 479 575 538 494 351 338 172 261 490 661 581 590 189 105 688 825 385 138 64 53 29 5 3 5 1 136
0 0 0 0 31 138 413 464 401 547 549 436 302 405 407 318 345 592 489 516 366 406 289 218 203 366 426 531 374 1 378 438 643 153 3 0 0 0 0 0 0 0 0
0 0 0 0 0 87 348 368 354 463 463 388 330 276 301 356 490 446 340 367 333 429 392 260 110 298 342 518 204 0 140 18 23 64 1 0 0 0 0 0 0 0 0
32 0 0 36 8 24 161 317 340 400 375 311 407 409 405 330 395 386 271 341 417 344 313 198 68 158 291 515 0 0 138 0 0 0 0 0 0 0 0 0 0 0 0
109 0 0 0 160 118 66 33 93 200 190 10 89 377 284 240 217 274 291 306 328 198 57 85 144 238 280 2 0 0 71 69 0 0 0 0 0 0 0 0 0 0 0
168 114 122 86 120 0 0 0 0 57 112 18 157 288 134 82 59 64 133 137 264 130 138 217 268 244 6 0 0 0 11 128 0 0 0 0 0 0 0 0 0 0 0
247 101 18 21 1 0 0 0 0 0 27 110 189 188 50 0 0 0 0 0 0 0 87 199 157 0 0 0 0 0 0 0 0 0 0 0 0 0 0 0 0 0 0
113 37 12 13 0 0 0 0 0 0 10 25 78 39 0 0 0 0 0 0 0 0 0 0 0 0 0 0 0 0 0 0 0 0 0 0 0 0 0 0 0 0 0
99 82 1 0 0 0 0 0 0 0 1 1 0 0 0 0 0 0 0 0 0 0 0 0 0 0 0 0 0 0 0 0 0 0 0 0 0 0 0 0 0 0 0
25 2 0 0 1 0 0 0 0 0 0 0 0 0 0 0 0 0 0 0 0 0 0 0 0 0 0 0 0 0 0 0 0 0 0 0 0 0 1 0 0 0 0
CIN
-177 -242 -211 -210 -157 -136 -105 -78 -82 -86 -109 -114 -166 -131 -135 -287 -374 -0 -0 -0 -259 -251 -186 -134 -93 -75 -63 -60 -60 -50 -54 -66 -71 -48 -31 -35 -39 -35 -42 -26 -7 -9 -10
-0 -157 -111 -116 -113 -113 -103 -89 -78 -80 -101 -112 -168 -252 -246 -222 -122 -0 -0 -0 -123 -274 -265 -186 -132 -109 -89 -81 -61 -56 -69 -85 -83 -57 -35 -36 -39 -34 -52 -43 -8 -9 -19
-102 -92 -91 -99 -94 -108 -85 -74 -104 -130 -122 -167 -182 -211 -268 -261 -0 -0 -0 -0 -0 -139 -245 -185 -162 -147 -116 -86 -61 -59 -77 -84 -76 -58 -43 -36 -35 -38 -78 -59 -10 -14 -23
-88 -96 -94 -84 -95 -88 -75 -81 -103 -120 -156 -149 -124 -116 -169 -0 -0 -0 -67 -71 -81 -284 -262 -208 -158 -136 -115 -91 -78 -81 -71 -76 -76 -72 -59 -41 -40 -45 -85 -63 -25 -18 -15
-69 -69 -91 -104 -106 -72 -68 -75 -84 -132 -122 -147 -132 -129 -195 -189 -196 -236 -189 -214 -199 -174 -157 -150 -129 -114 -102 -97 -100 -81 -80 -73 -72 -77 -78 -56 -51 -55 -86 -68 -44 -19 -18
-52 -57 -100 -127 -98 -62 -57 -66 -82 -123 -105 -88 -97 -159 -219 -270 -280 -230 -204 -193 -159 -136 -151 -160 -130 -140 -123 -92 -110 -102 -92 -74 -79 -84 -79 -91 -54 -58 -79 -80 -58 -36 -21
-52 -86 -276 -105 -81 -54 -58 -61 -71 -85 -97 -167 -93 -150 -217 -260 -254 -266 -280 -247 -198 -224 -265 -228 -187 -229 -183 -145 -131 -123 -108 -102 -64 -77 -77 -83 -78 -63 -65 -118 -50 -43 -29
-41 -50 -90 -81 -77 -56 -54 -51 -69 -85 -131 -162 -50 -136 -87 -155 -236 -286 -289 -264 -262 -329 -316 -326 -311 -295 -307 -0 -0 -275 -159 -114 -70 -63 -85 -70 -108 -90 -71 -94 -82 -33 -31
-39 -49 -53 -75 -79 -64 -42 -52 -63 -62 -82 -166 -186 -67 -62 -72 -177 -298 -279 -290 -286 -293 -315 -337 -300 -330 -356 -0 -0 -225 -170 -171 -139 -78 -64 -108 -104 -122 -93 -72 -107 -70 -30
-36 -39 -49 -60 -58 -67 -44 -51 -62 -70 -85 -82 -176 -229 -236 -217 -107 -91 -218 -275 -309 -326 -299 -286 -302 -326 -414 -0 -0 -0 -294 -162 -131 -79 -73 -67 -114 -118 -117 -86 -86 -113 -102
-48 -37 -45 -49 -50 -54 -51 -44 -49 -55 -75 -84 -107 -153 -238 -316 -328 -208 -144 -12 -15 -402 -300 -264 -230 -277 -111 -19 -256 -178 -121 -124 -88 -76 -98 -96 -103 -112 -148 -114 -73 -72 -110
-55 -44 -39 -42 -44 -45 -38 -46 -56 -58 -58 -66 -112 -142 -132 -128 -148 -0 -56 -160 -142 -182 -183 -173 -175 -215 -196 -197 -138 -112 -91 -76 -77 -76 -112 -99 -101 -123 -129 -193 -98 -57 -49
-73 -54 -48 -46 -41 -40 -44 -50 -50 -53 -56 -55 -62 -97 -160 -141 -195 -0 -83 -112 -88 -130 -85 -105 -118 -122 -114 -116 -90 -104 -84 -73 -70 -87 -93 -70 -91 -114 -97 -182 -176 -99 -64
-68 -76 -66 -51 -51 -40 -37 -48 -49 -42 -59 -50 -58 -63 -103 -145 -164 -162 -104 -69 -45 -39 -0 -52 -74 -79 -86 -86 -84 -87 -76 -90 -95 -77 -96 -147 -122 -137 -109 -130 -0 -14 -140
-99 -98 -76 -63 -48 -50 -34 -40 -38 -32 -38 -48 -53 -58 -55 -102 -149 -127 -120 -121 -49 -22 -30 -43 -37 -81 -97 -75 -94 -93 -83 -107 -102 -103 -117 -122 -111 -113 -126 -114 -103 -119 -2
-151 -119 -108 -73 -63 -50 -37 -34 -28 -33 -31 -38 -39 -41 -45 -52 -59 -77 -80 -93 -105 -54 -23 -72 -43 -71 -88 -67 -91 -87 -93 -98 -109 -119 -145 -184 -185 -165 -146 -177 -195 -194 -144
-0 -53 -121 -101 -68 -58 -39 -30 -23 -22 -29 -30 -41 -34 -34 -43 -29 -36 -45 -48 -47 -63 -33 -57 -78 -68 -62 -60 -68 -101 -114 -86 -91 -132 -225 -323 -342 -383 -122 -122 -292 -79 -216
-0 -0 -0 -8 -118 -71 -38 -29 -33 -28 -23 -23 -33 -37 -26 -32 -28 -31 -32 -27 -32 -51 -33 -31 -63 -56 -61 -79 -96 -8 -98 -94 -93 -148 -96 -0 -0 -0 -0 -0 -0 -0 -0
-0 -0 -0 -0 -0 -84 -42 -44 -38 -35 -36 -36 -46 -40 -31 -28 -25 -28 -36 -35 -32 -37 -41 -49 -64 -70 -76 -79 -104 -0 -96 -111 -110 -138 -10 -0 -0 -0 -0 -0 -0 -0 -0
-50 -0 -0 -57 -70 -120 -55 -50 -51 -43 -43 -51 -57 -45 -41 -37 -26 -28 -33 -33 -34 -39 -55 -66 -101 -79 -72 -65 -0 -0 -85 -0 -0 -0 -0 -0 -0 -0 -0 -0 -0 -0 -0
-62 -0 -0 -0 -60 -78 -127 -121 -94 -56 -63 -90 -90 -58 -59 -61 -60 -55 -43 -43 -50 -49 -89 -81 -73 -69 -87 -10 -0 -0 -101 -86 -0 -0 -0 -0 -0 -0 -0 -0 -0 -0 -0
-54 -56 -50 -56 -58 -0 -0 -0 -0 -103 -89 -142 -60 -66 -112 -115 -116 -108 -88 -79 -55 -61 -60 -53 -54 -57 -38 -0 -0 -0 -96 -69 -0 -0 -0 -0 -0 -0 -0 -0 -0 -0 -0
-67 -57 -69 -99 -83 -0 -0 -0 -0 -0 -150 -103 -79 -87 -150 -0 -0 -0 -0 -0 -0 -0 -65 -67 -67 -0 -0 -0 -0 -0 -0 -0 -0 -0 -0 -0 -0 -0 -0 -0 -0 -0 -0
-88 -93 -71 -104 -0 -0 -0 -0 -0 -0 -202 -178 -146 -146 -0 -0 -0 -0 -0 -0 -0 -0 -0 -0 -0 -0 -0 -0 -0 -0 -0 -0 -0 -0 -0 -0 -0 -0 -0 -0 -0 -0 -0
-63 -52 -62 -0 -0 -0 -0 -0 -29 -0 -94 -61 -17 -0 -0 -0 -0 -12 -0 -0 -0 -0 -0 -0 -0 -0 -0 -0 -0 -0 -0 -0 -0 -0 -0 -0 -0 -0 -0 -0 -0 -0 -0
-70 -94 -0 -0 -0 -0 -0 -0 -0 -0 -0 -0 -0 -0 -0 -0 -0 -0 -0 -0 -0 -0 -0 -0 -0 -0 -0 -0 -0 -0 -0 -0 -0 -0 -0 -0 -0 -0 -0 -0 -0 -0 -0
Wind_Speed
18 14 13 15 14 13 14 14 14 13 13 12 12 14 18 20 19 19 19 19 18 17 15 13 11 10 10 9 9 10 10 11 13 14 14 16 15 13 15 15 16 16 14
18 18 15 15 13 14 14 15 14 14 14 13 12 12 15 20 18 20 21 20 18 15 14 13 12 11 10 10 10 11 13 15 15 14 14 15 16 15 14 18 20 21 18
19 19 17 14 13 14 13 13 14 16 15 13 12 11 9 9 13 18 19 18 17 15 14 14 13 13 13 15 13 14 14 19 18 17 14 16 16 16 15 19 22 23 22
20 19 16 15 14 11 10 10 11 13 14 15 14 12 11 17 19 18 17 16 14 13 12 11 9 9 10 14 17 22 23 26 26 19 13 18 16 17 16 17 22 23 23
20 18 18 15 12 12 9 10 11 14 17 16 15 11 16 18 17 16 14 14 12 11 11 10 10 11 13 15 18 21 28 30 30 22 16 18 17 17 16 16 21 23 23
20 20 18 15 13 12 10 9 8 10 12 16 15 11 12 14 15 15 14 14 13 12 13 13 15 18 19 18 17 19 26 29 32 28 21 16 16 16 16 16 19 22 24
21 21 20 18 15 13 11 11 12 11 12 14 11 12 13 14 14 15 15 13 12 12 16 18 17 21 21 20 15 15 23 29 32 18 17 12 13 14 16 15 16 19 22
20 22 21 20 18 16 13 12 13 16 14 14 14 12 18 18 15 16 15 16 15 17 18 16 18 21 23 10 5 11 17 27 31 6 7 9 10 13 15 15 16 17 19
20 20 21 21 20 18 15 14 14 15 16 15 14 4 17 15 14 10 11 15 16 15 16 17 13 14 8 10 11 6 19 29 30 2 2 6 8 11 14 15 15 15 16
21 20 20 20 19 19 15 18 15 15 15 16 16 16 16 13 11 9 8 7 9 4 11 4 5 2 11 10 8 5 13 28 4 4 4 5 7 9 12 14 14 13 13
21 21 21 21 20 18 19 19 17 16 15 15 14 13 18 16 15 9 15 13 5 5 7 8 8 6 8 8 8 12 22 22 15 13 6 4 10 9 11 12 12 12 12
19 15 16 15 20 20 20 21 21 20 17 15 15 14 9 9 10 12 7 8 7 9 9 13 9 9 17 9 20 18 21 20 17 12 7 5 8 10 10 12 12 11 11
17 19 10 9 11 17 22 20 22 22 22 19 16 11 10 10 10 10 9 9 8 11 9 14 21 22 23 21 22 21 22 23 22 18 13 8 10 12 12 11 11 10 10
18 18 21 14 8 6 15 20 22 23 21 8 7 8 8 8 9 9 9 9 9 9 8 10 9 23 23 22 22 21 22 22 21 21 20 17 11 8 8 9 8 8 9
23 21 18 17 13 13 9 12 16 24 24 23 22 8 5 6 7 8 8 9 11 9 9 11 8 21 20 20 20 20 21 21 21 21 21 21 21 14 8 7 7 7 8
15 6 8 6 19 16 12 13 19 21 19 9 8 15 14 11 8 8 8 10 10 10 8 11 12 6 20 20 20 20 21 21 21 22 23 23 23 21 18 12 10 10 8
5 3 2 8 15 16 18 16 16 12 20 24 15 6 6 15 14 10 12 10 10 10 7 13 12 14 20 21 21 22 23 22 22 23 23 24 24 23 23 23 21 7 13
10 6 4 6 14 5 9 8 8 4 9 10 4 7 12 16 12 9 9 7 9 9 9 7 14 17 19 22 22 23 23 22 22 23 24 25 24 24 23 24 23 21 19
9 13 10 3 23 7 14 4 2 6 8 13 13 12 15 12 8 7 7 9 11 11 12 14 16 17 18 21 22 21 21 22 22 22 23 24 25 24 23 23 23 22 23
16 17 14 17 18 18 19 15 12 12 13 14 14 19 18 14 7 9 12 11 12 14 15 16 16 18 18 19 20 20 19 20 21 22 22 23 24 25 25 24 24 24 24
20 18 17 19 18 17 18 19 18 16 11 13 14 20 18 19 16 15 16 16 16 19 19 20 20 19 19 20 20 20 19 16 20 21 21 22 23 24 25 25 25 26 25
15 16 18 20 19 18 20 21 21 23 19 18 16 15 13 14 15 15 13 13 13 14 15 16 17 17 17 17 17 18 18 17 18 23 20 21 22 23 24 25 25 25 26
15 15 16 19 18 19 20 21 22 19 21 18 17 14 16 17 16 15 15 15 15 16 16 16 16 16 17 15 16 17 17 17 18 22 17 21 20 21 22 23 25 25 26
17 20 18 20 17 18 19 21 23 19 16 18 19 15 15 17 17 15 14 14 16 18 18 18 18 18 17 16 16 17 17 16 17 23 21 20 19 20 20 22 24 24 25
18 23 25 22 19 21 20 20 19 17 15 15 17 18 17 18 20 17 17 15 15 16 17 15 15 16 17 18 16 16 18 18 22 23 25 18 18 15 19 21 22 24 24
24 21 24 24 23 20 21 19 16 15 16 15 16 17 17 16 16 15 15 14 14 15 13 14 15 17 18 19 20 21 20 21 22 23 24 19 17 16 16 18 20 22 24
Wind_Direction
181 201 208 197 195 203 204 202 206 212 212 212 209 200 177 163 160 160 151 149 147 144 138 137 138 127 116 112 101 88 79 70 64 60 60 59 60 65 63 59 57 58 77
184 168 203 197 208 209 206 204 208 212 210 211 215 202 184 161 169 151 140 141 139 140 134 128 119 117 112 102 92 83 70 62 58 57 57 60 59 65 66 61 59 63 79
179 173 180 201 209 208 213 218 216 209 209 211 212 220 230 239 206 160 142 141 134 127 121 113 109 100 90 80 80 71 66 55 53 54 59 59 62 67 69 65 64 68 80
175 182 196 198 206 218 230 234 231 212 212 208 218 231 245 177 150 144 142 132 136 126 114 108 110 99 86 72 61 49 49 42 43 52 62 59 67 70 75 73 71 75 83
173 186 191 203 216 216 244 233 229 213 204 210 227 278 207 137 130 134 148 129 135 128 112 103 86 77 66 59 53 51 31 27 31 49 60 63 68 74 81 82 79 83 87
174 183 198 210 220 228 245 265 278 262 242 229 254 340 43 123 111 86 93 96 98 92 77 64 51 41 35 42 50 44 26 23 18 38 54 68 75 80 87 93 89 89 91
169 171 181 201 225 244 256 259 246 261 271 271 10 19 350 360 21 27 34 59 67 66 40 35 40 29 25 26 41 44 28 11 7 54 61 78 88 90 92 100 100 98 97
180 175 173 190 204 234 263 276 271 241 272 287 288 333 223 229 321 354 17 11 25 19 16 32 28 25 15 58 242 253 38 13 354 78 83 89 99 98 97 105 106 106 106
183 182 174 166 200 224 260 274 282 271 270 293 308 236 187 173 186 57 40 18 19 26 23 21 38 34 35 241 257 149 34 359 349 267 126 106 111 107 105 108 115 113 112
188 192 205 193 193 229 285 254 275 283 286 294 299 319 331 9 154 170 69 49 30 71 28 63 69 235 251 227 207 158 281 351 65 267 255 134 127 123 116 111 117 124 125
181 182 193 203 226 256 235 244 274 283 300 322 328 347 311 348 10 132 225 224 125 160 91 88 198 192 213 196 112 78 316 319 298 292 265 175 122 132 126 120 122 128 133
170 152 152 143 188 217 232 228 249 266 290 314 330 351 53 84 81 50 92 78 130 81 82 84 145 119 293 240 359 299 319 315 304 291 263 200 142 135 132 127 126 129 134
170 180 125 121 129 165 224 265 245 236 260 289 318 11 46 71 68 74 115 164 140 93 134 65 4 341 325 308 311 315 334 340 334 320 299 256 138 129 127 125 128 129 132
180 179 195 159 121 32 311 283 264 230 270 4 111 67 107 102 82 82 109 90 165 148 113 209 85 327 310 327 332 341 356 346 335 339 333 315 271 172 167 139 151 145 135
202 196 184 179 160 163 131 153 175 237 247 269 279 8 67 93 116 75 92 86 54 138 141 68 177 307 314 329 325 333 341 338 336 331 330 328 327 282 218 201 188 168 150
183 124 142 132 184 173 159 161 189 235 210 355 14 327 340 0 47 47 45 34 37 50 97 54 60 120 323 332 325 327 327 324 325 324 330 329 322 306 285 255 238 203 166
6 44 88 316 175 177 187 175 179 163 197 236 237 39 125 331 341 9 9 25 29 33 75 22 33 36 344 332 321 323 325 331 337 340 342 334 332 328 326 326 315 63 120
328 346 353 334 300 327 316 153 142 90 144 158 77 2 344 324 346 18 35 77 38 48 45 76 18 357 345 326 329 329 342 343 345 349 351 354 350 346 348 360 8 6 356
318 320 325 352 281 315 302 336 1 345 340 326 324 331 323 338 10 36 49 35 16 24 21 9 0 353 351 343 337 342 346 347 355 356 360 356 356 355 355 358 359 0 358
297 301 305 304 299 294 294 305 313 317 315 317 313 301 307 326 354 355 346 355 354 351 348 351 352 347 347 346 349 348 356 355 351 359 6 3 1 1 359 358 356 357 356
287 293 296 298 300 299 296 296 303 305 316 317 322 290 307 308 318 323 324 325 326 323 325 327 328 332 336 339 343 347 354 7 2 356 4 3 1 1 358 360 360 358 359
285 287 291 291 293 296 295 295 295 293 298 302 309 310 317 323 322 327 333 333 337 336 337 338 337 338 342 345 347 350 353 354 347 348 354 358 359 1 358 359 1 4 6
279 278 291 296 292 291 293 293 290 300 298 300 302 306 310 313 319 326 325 329 327 328 331 331 332 335 336 342 340 343 347 350 351 346 354 346 351 354 356 357 358 359 0
277 278 288 291 295 293 289 292 290 298 305 301 297 301 307 311 314 318 322 325 324 320 320 320 323 325 326 332 334 337 341 349 347 342 344 340 346 347 351 354 354 355 355
278 282 287 287 296 284 282 287 296 300 309 310 300 298 304 308 309 311 309 315 322 328 334 334 335 335 333 329 330 332 329 331 326 330 335 339 340 347 352 350 349 351 352
280 290 289 293 287 288 287 278 288 294 301 302 307 312 310 313 318 318 312 314 314 318 330 329 333 337 335 333 332 327 324 325 324 325 331 333 339 339 338 352 353 349 347